Hors Challenge

La Corrida By Run & Fly - Emines (3.10 km)

vendredi 22 novembre 2019

Vous pouvez trouver Le classement original sur : http://ultratiming.be
 
LA CORRIDA BY RUN & FLY - EMINES
DISTANCE 3.09 km
vendredi 22 novembre 2019
 
Place dos NOM Equipe Catégorie Pl/cat temps temps/km Vitesse
01:00:00                
1 4894 MOHDHI ALEXANDRE JACO JUH 1 0:10:39 03:27 17.40
2 4902 DOYE AMNO SMAC JUH 2 0:11:33 03:44 16.04
3 4884 PASTEELS JOHAN RUN FLY SEH 1 0:11:40 03:47 15.88
4 4889 LUYCKX ANTOINE TRIFLY JUH 3 0:11:48 03:49 15.70
5 4887 PAULET ARNAUD - JUH 4 0:12:15 03:58 15.13
6 4832 LEFEBVRE MAËL CS DYLE JUH 5 0:12:23 04:01 14.96
7 4870 ZARRO LUDOVIC CAMMAERTS V1H 1 0:12:44 04:07 14.55
8 4850 TOM NOEL - JUH 6 0:12:50 04:09 14.44
9 4865 RENIER THOMAS - JUH 7 0:12:51 04:10 14.42
10 4819 GARCIA ESTÉBAN - JUH 8 0:13:14 04:17 14.00
11 4907 PUISSIEUX FLORIAN - ESPH 1 0:13:30 04:22 13.73
12 4911 ANCIAUX CASSIAN BC NEW BASKET BELGRA JUH 9 0:13:40 04:26 13.56
13 4820 GARCIA FRANÇOIS-DAVID - V1H 2 0:14:05 04:34 13.16
14 4801 ALSTEEN EVA Q3TEAM JUF 1 0:14:15 04:37 13.00
15 4866 GUÉRENNE MAXENDRE RFC RHISNES JUH 10 0:14:16 04:37 12.99
16 4812 DENIS LIBERT - JUH 11 0:14:30 04:42 12.78
17 4839 MANIQUET ROMANE - JUF 2 0:14:46 04:47 12.55
18 4859 DUPONT NATHANAEL RFC RHISNES JUH 12 0:14:46 04:47 12.55
19 4883 POLET TRISTAN - JUH 13 0:15:08 04:54 12.25
20 4868 MASSIN RAPHAËL RFC RHISNES JUH 14 0:15:17 04:57 12.12
21 4854 PIRET LOAN FLY JUH 15 0:15:21 04:58 12.07
22 4856 LUCAS MATTÉO RFC RHISNES JUH 16 0:15:22 04:59 12.06
23 4873 CUSTINNE TOM RFC RHISNOIS JUH 17 0:15:33 05:02 11.92
24 4863 DEMOITIÉ CLÉMENT FC RHISNES JUH 18 0:15:33 05:02 11.92
25 4833 LEURQUIN FREDERIC - V1H 3 0:15:42 05:05 11.80
26 4877 CRUQUENAIRE MANOÉ - JUH 19 0:15:49 05:07 11.72
27 4847 ROSALIE NOEL - JUF 3 0:16:15 05:16 11.40
28 4838 MANIQUET CAMILLE - JUF 4 0:16:30 05:21 11.23
29 4857 NELIS ELSA RFC RHISNES JUF 5 0:16:30 05:21 11.23
30 4871 ZARRO SAM SMAC JUH 20 0:16:50 05:27 11.01
31 4809 CORENTIN MOUCHET - JUH 21 0:16:55 05:29 10.95
32 4802 BIAMONT JEAN SMAC JUH 22 0:17:21 05:37 10.68
33 4892 GUELI EMILE - JUH 23 0:17:26 05:39 10.63
34 4861 AERTS ARNO RFC RHISNES JUH 24 0:17:54 05:48 10.35
35 4858 CHEVAL ROMAIN RFC RHISNOIS JUH 25 0:17:56 05:48 10.33
36 4828 JANNA VAN KERCKHOVEN - JUF 6 0:18:03 05:51 10.27
37 4869 FRANÇOIS NATHAN OCAN JUH 26 0:18:13 05:54 10.17
38 4807 CLOSON HENRI BEST JUH 27 0:18:25 05:58 10.06
39 4885 DESPONTIN MAELINE OCAN JUF 7 0:18:26 05:58 10.05
40 4900 VAN GROE LORIS - JUH 28 0:18:30 05:59 10.02
41 4817 FELIX CARIAT - JUH 29 0:18:31 06:00 10.01
42 4901 RICHARD CELINE - JUH 30 0:18:44 06:04 9.89
43 4848 SÉBASTIEN BEDOGNI - V1H 4 0:18:50 06:06 9.84
44 4862 PIRSON NATHAN RFC RHISNES JUH 31 0:18:50 06:06 9.84
45 4825 GUELI ELLA - JUF 8 0:18:50 06:06 9.84
46 4811 DAICHE OLIVIER RUN FLY V1H 5 0:18:53 06:07 9.81
47 4886 DESPONTIN LOUNIS ARCH JUH 32 0:18:57 06:08 9.78
48 4909 BIOT HELENE - JUF 9 0:19:06 06:11 9.70
49 4908 DEJARDIN GUILLAUME - ESPH 2 0:19:34 06:20 9.47
50 4803 BINAMÉ CHLOÉ US EMINES JUF 10 0:20:08 06:31 9.20
51 4843 NANCY JONET - V2F 1 0:20:08 06:31 9.20
52 4814 EDGAR CARIAT - JUH 33 0:20:14 06:33 9.16
53 4823 GRAINDORGE SARAH - ESPF 1 0:20:20 06:35 9.11
54 4849 SEELDE AURORE RUN&FLY V1F 1 0:20:20 06:35 9.11
55 4851 VIRGINIE EVRARD - SEF 1 0:20:25 06:37 9.08
56 4867 MASSIN FREDERIC FC RHISNES V1H 6 0:20:34 06:40 9.01
57 4914 POSKIN FIORINE - JUF 11 0:20:39 06:41 8.97
58 4853 DEBOURG VICTOR RUN FLY - 1 0:20:40 06:41 8.97
59 4888 JACQUET THEO - JUH 34 0:20:44 06:43 8.94
60 4836 MAGALI BODART - V1F 2 0:20:49 06:44 8.90
61 4830 KARINE LECLEIR - V2F 2 0:21:10 06:51 8.75
62 4891 COLETTE LÉO - JUH 35 0:21:11 06:52 8.75
63 4808 CLOSON OSCAR CLACLA JUH 36 0:21:12 06:52 8.74
64 4842 MELISSA BRILMAKER - SEF 2 0:21:12 06:52 8.74
65 4822 GRAINDORGE PIERRE - JUH 37 0:21:13 06:52 8.73
66 4827 JADE GEENS - JUF 12 0:21:34 06:59 8.59
67 4852 WARIN MARION - JUF 13 0:21:34 06:59 8.59
68 4840 MANON PINCHART - JUF 14 0:21:34 06:59 8.59
69 4918 GRANDJEAN FLORENT - JUH 38 0:21:41 07:01 8.55
70 4917 GRANDJEAN GUY - V2H 1 0:21:42 07:02 8.54
71 4899 COLLIGNON FRANCOISE - V1F 3 0:21:46 07:03 8.51
72 4897 EL OUALITI YOUSSEF - JUH 39 0:21:48 07:04 8.50
73 4804 CAROLINE ACUSILAS - V1F 4 0:21:49 07:04 8.49
74 4845 POELS EVA - JUF 15 0:21:52 07:05 8.47
75 4844 POELS ARNAUD - V1H 7 0:21:53 07:05 8.47
76 4913 RHR LAE - V1F 5 0:21:53 07:05 8.47
77 4818 FOGUENNE CLAUDE - V1F 6 0:21:55 07:06 8.46
78 4835 LISPET PASCALINE FLY V1F 7 0:21:56 07:06 8.45
79 4824 GRÉGORY VANMEERBEEK - V1H 8 0:22:16 07:13 8.32
80 4912 LARIELLE SARAH RUN FLY SEF 3 0:22:25 07:15 8.27
81 4813 DURET MAUD RUN & FLY SEF 4 0:22:28 07:16 8.25
82 4905 FROMENT VALENTINE - JUF 16 0:22:29 07:17 8.24
83 4904 DEKIMPE SARAH - JUF 17 0:22:33 07:18 8.22
84 4829 JEAN-PIERRE DUQUESNE - V3H 1 0:22:33 07:18 8.22
85 4855 GILLES FRANCOISE - V3F 1 0:22:33 07:18 8.22
86 4834 LINDA LEROY - V2F 3 0:22:33 07:18 8.22
87 4401 ABRAHAM JESSICA RUN FLY SEF 5 0:22:41 07:21 8.17
88 4903 DUBOIS HÉLÈNE - SEF 6 0:22:52 07:24 8.10
89 4872 DUBOIS ANNE SOPHIE - SEF 7 0:22:53 07:25 8.10
90 4821 GILOU DEWARD - JUH 40 0:22:59 07:26 8.06
91 4837 MALO DEWARD - JUH 41 0:23:00 07:27 8.06
92 4805 CHRISTOPHE DEWARD - V1H 9 0:23:02 07:27 8.05
93 4860 MM ROBAYE NOAH RFC RHISNES JUH 42 0:23:12 07:31 7.99
94 4906 MONTULET ELINA - JUF 18 0:23:17 07:32 7.96
95 4910 BOLLY LUCIE - JUF 19 0:23:18 07:33 7.95
96 4875 VANDE MAELE NOAH RJAISCHE JUH 43 0:23:39 07:39 7.84
97 4876 VANDE MAELE LÉNA - ESPF 2 0:23:39 07:39 7.84
98 4806 CINDY MAMERE - SEF 8 0:23:55 07:45 7.75
99 4882 DECAMPS NATHALIE - V1F 8 0:23:58 07:46 7.73
100 4846 PONCELET ESTELLE - JUF 20 0:24:04 07:48 7.70
101 4815 FAUCHEUX MARGAUX - JUF 21 0:24:07 07:49 7.68
102 4841 MARIE PREUDHOMME - SEF 9 0:24:16 07:51 7.64
103 4881 LEROY JUSTINE - SEF 10 0:25:04 08:07 7.39
104 4880 VAN DE SANDE MARION - SEF 11 0:25:18 08:12 7.32
105 4893 PUISSIEUX EMILIE - SEF 12 0:25:40 08:19 7.22
106 4831 LARA MARÉCHAL - ESPF 3 0:27:09 08:47 6.83
107 4874 DINJART JEAN LUC - V2H 2 0:27:20 08:51 6.78
108 4916 VANHAMME LESLIE - ESPF 4 0:28:23 09:11 6.53
109 4915 VANHAMME RUDY - V2H 3 0:28:23 09:11 6.53
110 4890 VAN WIJNSBERGHE ROBIN RUN FLY JUH 44 0:28:30 09:14 6.50
111 4878 MODAVE NATHAN - JUH 45 0:28:36 09:16 6.48
112 4879 DENIS FLORENCE - SEF 13 0:28:50 09:20 6.43
113 4826 HENNART ALINE FLY SEF 14 0:28:52 09:21 6.42
114 4896 HANSSENS ETHAN - JUH 46 0:30:02 09:43 6.17
115 4898 FERRETTI MARIE - SEF 15 0:31:49 10:18 5.82
116 4895 TWAHIRWA TRACEY - JUF 22 0:31:49 10:18 5.82
                 
Nos dernières videos